Location: Unspecified
(0.0000°N, 0.0000°E)
Time: 03:55:04
(UTC+00:00)

Vanguard 1 - Pass Details

Date: 17 February 2018
Orbit: 650 x 3833 km, 34.3° (Epoch: 25 May)

Event Time Altitude Azimuth Distance (km) Brightness Sun altitude
Exits shadow 01:23:15 17° 142° (SE) 4,153 13.3 -69.0°
Drops below altitude 10° 01:26:09 10° 138° (SE) 5,032 13.8 -68.4°
Sets 01:31:26 0° 133° (SE) 6,572 14.6 -67.3°
